| time (UTC) | temp F | wind direction | speed knots | gust knots | rain 1hr in | rain 24hr in | rain mn in | humidity % | barometer mb |
| 20260503184437 | 60 | 263 | 1.7 | 6.1 | 0.00 | 0.00 | 0.00 | 37 | 1019.1 |
| 20260503183933 | 60 | 245 | 2.6 | 5.2 | 0.00 | 0.00 | 0.00 | 37 | 1019.4 |
| 20260503183429 | 60 | 270 | 1.7 | 2.6 | 0.00 | 0.00 | 0.00 | 37 | 1019.4 |
| 20260503182927 | 60 | 262 | 0.0 | 1.7 | 0.00 | 0.00 | 0.00 | 38 | 1019.5 |
| 20260503182426 | 60 | 232 | 2.6 | 4.3 | 0.00 | 0.00 | 0.00 | 37 | 1019.5 |
| 20260503181923 | 60 | 188 | 0.9 | 1.7 | 0.00 | 0.00 | 0.00 | 38 | 1019.5 |
| 20260503181420 | 60 | 219 | 1.7 | 2.6 | 0.00 | 0.00 | 0.00 | 35 | 1019.6 |
| 20260503180915 | 60 | 314 | 0.9 | 1.7 | 0.00 | 0.00 | 0.00 | 37 | 1019.5 |
| 20260503180414 | 61 | 238 | 4.3 | 7.0 | 0.00 | 0.00 | 0.00 | 37 | 1019.7 |
| 20260503175910 | 60 | 200 | 1.7 | 4.3 | 0.00 | 0.00 | 0.00 | 41 | 1019.5 |
| 20260503175409 | 60 | 296 | 3.5 | 4.3 | 0.00 | 0.00 | 0.00 | 35 | 1019.7 |
| 20260503174904 | 60 | 241 | 2.6 | 7.0 | 0.00 | 0.00 | 0.00 | 35 | 1019.7 |
| 20260503174403 | 60 | 233 | 3.5 | 5.2 | 0.00 | 0.00 | 0.00 | 36 | 1019.7 |
| 20260503173903 | 60 | 254 | 4.3 | 5.2 | 0.00 | 0.00 | 0.00 | 35 | 1019.8 |
| 20260503173359 | 60 | 285 | 1.7 | 5.2 | 0.00 | 0.00 | 0.00 | 39 | 1020.2 |
| 20260503172856 | 60 | 228 | 1.7 | 6.1 | 0.00 | 0.00 | 0.00 | 36 | 1020.1 |
| 20260503172354 | 60 | 291 | 2.6 | 4.3 | 0.00 | 0.00 | 0.00 | 38 | 1020.0 |
| 20260503171849 | 60 | 262 | 2.6 | 4.3 | 0.00 | 0.00 | 0.00 | 35 | 1020.2 |
| 20260503171346 | 60 | 247 | 1.7 | 7.0 | 0.00 | 0.00 | 0.00 | 37 | 1020.4 |
| 20260503170844 | 60 | 149 | 3.5 | 7.8 | 0.00 | 0.00 | 0.00 | 36 | 1020.5 |
| 20260503170340 | 59 | 232 | 1.7 | 6.1 | 0.00 | 0.00 | 0.00 | 36 | 1020.6 |
| 20260503150732 | 55 | 180 | 0.0 | 1.7 | 0.00 | 0.00 | 0.00 | 56 | 1021.8 |
| 20260503150228 | 54 | 283 | 0.9 | 2.6 | 0.00 | 0.00 | 0.00 | 51 | 1021.9 |
| 20260503140153 | 51 | 354 | 1.7 | 2.6 | 0.00 | 0.00 | 0.00 | 51 | 1021.9 |
| 20260503131122 | 48 | 216 | 0.0 | 1.7 | 0.00 | 0.00 | 0.00 | 57 | 1022.0 |
| 20260503130620 | 48 | 201 | 0.0 | 2.6 | 0.00 | 0.00 | 0.00 | 57 | 1022.1 |
| 20260503130118 | 47 | 273 | 0.9 | 1.7 | 0.00 | 0.00 | 0.00 | 58 | 1022.1 |
| 20260503110510 | 37 | 62 | 0.0 | 0.0 | 0.00 | 0.00 | 0.00 | 83 | 1021.3 |
| 20260503090402 | 35 | 62 | 0.0 | 0.0 | 0.00 | 0.00 | 0.00 | 87 | 1020.7 |
| 20260503081329 | 36 | 63 | 0.0 | 0.0 | 0.00 | 0.00 | 0.00 | 87 | 1020.7 |
| 20260503080825 | 36 | 62 | 0.0 | 0.0 | 0.00 | 0.00 | 0.00 | 86 | 1020.7 |
| 20260503080323 | 36 | 63 | 0.0 | 0.0 | 0.00 | 0.00 | 0.00 | 86 | 1020.6 |
| 20260503072759 | 35 | 62 | 0.0 | 0.0 | 0.00 | 0.00 | 0.00 | 85 | 1020.6 |
| 20260503072256 | 36 | 62 | 0.0 | 0.0 | 0.00 | 0.00 | 0.00 | 85 | 1020.6 |
| 20260503071752 | 36 | 62 | 0.0 | 0.0 | 0.00 | 0.00 | 0.00 | 85 | 1020.6 |
| 20260503071249 | 36 | 62 | 0.0 | 0.0 | 0.00 | 0.00 | 0.00 | 85 | 1020.6 |
| 20260503070746 | 36 | 62 | 0.0 | 0.0 | 0.00 | 0.00 | 0.00 | 85 | 1020.6 |
| 20260503070244 | 36 | 62 | 0.0 | 0.0 | 0.00 | 0.00 | 0.00 | 85 | 1020.7 |
| 20260503060215 | 37 | 63 | 0.0 | 0.0 | 0.00 | 0.00 | 0.00 | 83 | 1021.0 |
| 20260503054701 | 37 | 62 | 0.0 | 0.0 | 0.00 | 0.00 | 0.00 | 82 | 1021.0 |
| 20260503054159 | 37 | 62 | 0.0 | 0.0 | 0.00 | 0.00 | 0.00 | 82 | 1021.2 |
| 20260503053657 | 37 | 62 | 0.0 | 0.0 | 0.00 | 0.00 | 0.00 | 82 | 1021.0 |
| 20260503053155 | 37 | 62 | 0.0 | 0.0 | 0.00 | 0.00 | 0.00 | 82 | 1021.2 |
| 20260503052651 | 38 | 62 | 0.0 | 0.0 | 0.00 | 0.00 | 0.00 | 82 | 1021.2 |
| 20260503052147 | 38 | 63 | 0.0 | 0.0 | 0.00 | 0.00 | 0.00 | 82 | 1021.0 |
| 20260503051643 | 38 | 62 | 0.0 | 0.0 | 0.00 | 0.00 | 0.00 | 82 | 1020.9 |
| 20260503051141 | 38 | 62 | 0.0 | 0.0 | 0.00 | 0.00 | 0.00 | 82 | 1020.9 |
| 20260503050637 | 38 | 62 | 0.0 | 0.0 | 0.00 | 0.00 | 0.00 | 81 | 1021.3 |
| 20260503050134 | 38 | 62 | 0.0 | 0.0 | 0.00 | 0.00 | 0.00 | 80 | 1021.0 |
| 20260503045632 | 38 | 62 | 0.0 | 0.0 | 0.00 | 0.00 | 0.00 | 81 | 1021.0 |
| 20260503045129 | 38 | 63 | 0.0 | 0.0 | 0.00 | 0.00 | 0.00 | 80 | 1021.0 |
| 20260503044625 | 39 | 62 | 0.0 | 0.0 | 0.00 | 0.00 | 0.00 | 80 | 1020.9 |
| 20260503044123 | 38 | 63 | 0.0 | 0.0 | 0.00 | 0.00 | 0.00 | 80 | 1021.2 |
| 20260503043619 | 39 | 63 | 0.0 | 0.0 | 0.00 | 0.00 | 0.00 | 80 | 1021.2 |
| 20260503043116 | 38 | 63 | 0.0 | 0.0 | 0.00 | 0.00 | 0.00 | 80 | 1021.0 |
| 20260503042613 | 39 | 63 | 0.0 | 0.0 | 0.00 | 0.00 | 0.00 | 79 | 1021.2 |
| 20260503042109 | 39 | 63 | 0.0 | 0.0 | 0.00 | 0.00 | 0.00 | 79 | 1021.2 |
| 20260503041605 | 39 | 63 | 0.0 | 0.0 | 0.00 | 0.00 | 0.00 | 78 | 1021.2 |
| 20260503041103 | 39 | 63 | 0.0 | 0.0 | 0.00 | 0.00 | 0.00 | 78 | 1021.0 |
| 20260503040600 | 39 | 63 | 0.0 | 0.0 | 0.00 | 0.00 | 0.00 | 78 | 1021.0 |
| 20260503040057 | 39 | 63 | 0.0 | 0.0 | 0.00 | 0.00 | 0.00 | 77 | 1021.2 |
| 20260503035554 | 39 | 63 | 0.0 | 0.0 | 0.00 | 0.00 | 0.00 | 77 | 1021.0 |
| 20260503035052 | 39 | 63 | 0.0 | 0.0 | 0.00 | 0.00 | 0.00 | 77 | 1021.0 |
| 20260503034549 | 39 | 63 | 0.0 | 0.0 | 0.00 | 0.00 | 0.00 | 77 | 1021.0 |
| 20260503034046 | 39 | 63 | 0.0 | 0.0 | 0.00 | 0.00 | 0.00 | 77 | 1021.2 |
| 20260503033543 | 39 | 63 | 0.0 | 0.0 | 0.00 | 0.00 | 0.00 | 77 | 1021.2 |
| 20260503033041 | 39 | 63 | 0.0 | 0.0 | 0.00 | 0.00 | 0.00 | 77 | 1021.2 |
| 20260503032539 | 40 | 63 | 0.0 | 0.0 | 0.00 | 0.00 | 0.00 | 77 | 1021.2 |
| 20260503032037 | 40 | 63 | 0.0 | 0.0 | 0.00 | 0.00 | 0.00 | 77 | 1021.2 |
| 20260503031534 | 40 | 63 | 0.0 | 0.0 | 0.00 | 0.00 | 0.00 | 77 | 1021.0 |
| 20260503031032 | 40 | 63 | 0.0 | 0.0 | 0.00 | 0.00 | 0.00 | 76 | 1020.8 |
| 20260503030527 | 40 | 63 | 0.0 | 0.0 | 0.00 | 0.00 | 0.00 | 76 | 1021.2 |
| 20260503030025 | 40 | 63 | 0.0 | 0.0 | 0.00 | 0.00 | 0.00 | 76 | 1021.0 |
| 20260503025521 | 40 | 63 | 0.0 | 0.0 | 0.00 | 0.00 | 0.00 | 76 | 1021.0 |
| 20260503025020 | 41 | 63 | 0.0 | 0.0 | 0.00 | 0.00 | 0.00 | 76 | 1021.3 |
| 20260503024515 | 41 | 63 | 0.0 | 0.0 | 0.00 | 0.00 | 0.00 | 76 | 1021.0 |
| 20260503024013 | 41 | 63 | 0.0 | 0.0 | 0.00 | 0.00 | 0.00 | 75 | 1021.2 |
| 20260503023509 | 41 | 63 | 0.0 | 0.0 | 0.00 | 0.00 | 0.00 | 75 | 1021.2 |
| 20260503023006 | 41 | 63 | 0.0 | 0.0 | 0.00 | 0.00 | 0.00 | 75 | 1021.2 |
| 20260503022502 | 41 | 63 | 0.0 | 0.0 | 0.00 | 0.00 | 0.00 | 75 | 1021.2 |
| 20260503021957 | 41 | 63 | 0.0 | 0.0 | 0.00 | 0.00 | 0.00 | 74 | 1021.2 |
| 20260503021454 | 42 | 63 | 0.0 | 0.0 | 0.00 | 0.00 | 0.00 | 74 | 1021.0 |
| 20260503020951 | 42 | 63 | 0.0 | 0.0 | 0.00 | 0.00 | 0.00 | 73 | 1020.9 |
| 20260503020449 | 42 | 63 | 0.0 | 0.0 | 0.00 | 0.00 | 0.00 | 72 | 1020.9 |
| 20260503015945 | 42 | 63 | 0.0 | 0.0 | 0.00 | 0.00 | 0.00 | 71 | 1020.8 |
| 20260503015442 | 43 | 63 | 0.0 | 0.0 | 0.00 | 0.00 | 0.00 | 71 | 1020.9 |
| 20260503014938 | 43 | 63 | 0.0 | 0.0 | 0.00 | 0.00 | 0.00 | 70 | 1020.8 |
| 20260503014435 | 43 | 63 | 0.0 | 0.0 | 0.00 | 0.00 | 0.00 | 69 | 1020.9 |
| 20260503013933 | 43 | 62 | 0.0 | 0.0 | 0.00 | 0.00 | 0.00 | 66 | 1020.7 |
| 20260503013430 | 44 | 62 | 0.0 | 0.0 | 0.00 | 0.00 | 0.00 | 64 | 1020.6 |
| 20260503012927 | 44 | 62 | 0.0 | 0.0 | 0.00 | 0.00 | 0.00 | 63 | 1020.5 |
| 20260503012425 | 44 | 62 | 0.0 | 0.0 | 0.00 | 0.00 | 0.00 | 61 | 1020.6 |
| 20260503011921 | 45 | 62 | 0.0 | 0.0 | 0.00 | 0.00 | 0.00 | 60 | 1020.5 |
| 20260503011418 | 45 | 62 | 0.0 | 0.0 | 0.00 | 0.00 | 0.00 | 59 | 1020.5 |
| 20260503010915 | 46 | 62 | 0.0 | 0.0 | 0.00 | 0.00 | 0.00 | 58 | 1020.6 |
| 20260503010412 | 46 | 62 | 0.0 | 0.0 | 0.00 | 0.00 | 0.00 | 57 | 1020.2 |
| 20260503005909 | 46 | 62 | 0.0 | 0.0 | 0.00 | 0.00 | 0.00 | 56 | 1020.5 |
| 20260503005407 | 46 | 53 | 0.0 | 0.0 | 0.00 | 0.00 | 0.00 | 56 | 1020.4 |
| 20260503004902 | 47 | 53 | 0.0 | 0.9 | 0.00 | 0.00 | 0.00 | 55 | 1020.4 |
| 20260503004400 | 47 | 71 | 0.0 | 0.9 | 0.00 | 0.00 | 0.00 | 54 | 1020.3 |
| 20260503003857 | 47 | 57 | 0.9 | 0.9 | 0.00 | 0.00 | 0.00 | 53 | 1020.3 |
| 20260503003354 | 48 | 58 | 0.0 | 1.7 | 0.00 | 0.00 | 0.00 | 53 | 1020.3 |
| 20260503002851 | 48 | 35 | 0.0 | 0.9 | 0.00 | 0.00 | 0.00 | 52 | 1020.1 |
| 20260503002348 | 48 | 87 | 0.0 | 0.9 | 0.00 | 0.00 | 0.00 | 52 | 1020.2 |
| 20260503001844 | 48 | 40 | 0.0 | 0.9 | 0.00 | 0.00 | 0.00 | 52 | 1020.2 |
| 20260503001341 | 49 | 39 | 0.0 | 0.9 | 0.00 | 0.00 | 0.00 | 50 | 1020.1 |
| 20260503000838 | 49 | 23 | 0.0 | 1.7 | 0.00 | 0.00 | 0.00 | 51 | 1020.0 |
| 20260503000336 | 49 | 26 | 0.9 | 6.1 | 0.00 | 0.00 | 0.00 | 49 | 1019.9 |
| 20260502235833 | 49 | 31 | 0.0 | 4.3 | 0.00 | 0.00 | 0.00 | 49 | 1020.0 |
| 20260502235330 | 50 | 31 | 0.9 | 2.6 | 0.00 | 0.00 | 0.00 | 47 | 1019.8 |
| 20260502234826 | 50 | 24 | 0.9 | 1.7 | 0.00 | 0.00 | 0.00 | 48 | 1019.9 |
| 20260502234323 | 50 | 42 | 1.7 | 1.7 | 0.00 | 0.00 | 0.00 | 48 | 1019.9 |
| 20260502233820 | 51 | 20 | 0.9 | 2.6 | 0.00 | 0.00 | 0.00 | 46 | 1019.9 |
| 20260502233316 | 51 | 32 | 0.9 | 1.7 | 0.00 | 0.00 | 0.00 | 47 | 1019.7 |
| 20260502232813 | 51 | 349 | 0.9 | 2.6 | 0.00 | 0.00 | 0.00 | 47 | 1019.8 |
| 20260502232310 | 51 | 54 | 0.9 | 0.9 | 0.00 | 0.00 | 0.00 | 46 | 1019.7 |
| 20260502231806 | 51 | 57 | 0.9 | 1.7 | 0.00 | 0.00 | 0.00 | 45 | 1019.8 |
| 20260502231304 | 51 | 29 | 0.9 | 1.7 | 0.00 | 0.00 | 0.00 | 48 | 1019.7 |
| 20260502230802 | 50 | 50 | 0.0 | 0.9 | 0.00 | 0.00 | 0.00 | 46 | 1019.8 |
| 20260502230300 | 51 | 67 | 1.7 | 2.6 | 0.00 | 0.00 | 0.00 | 45 | 1019.5 |
| 20260502225756 | 51 | 36 | 0.9 | 2.6 | 0.00 | 0.00 | 0.00 | 44 | 1019.6 |
| 20260502225253 | 52 | 29 | 0.9 | 4.3 | 0.00 | 0.00 | 0.00 | 46 | 1019.6 |
| 20260502224749 | 52 | 3 | 1.7 | 2.6 | 0.00 | 0.00 | 0.00 | 41 | 1019.6 |
| 20260502224246 | 52 | 347 | 2.6 | 2.6 | 0.00 | 0.00 | 0.00 | 42 | 1019.6 |
| 20260502223744 | 53 | 252 | 0.9 | 2.6 | 0.00 | 0.00 | 0.00 | 42 | 1019.4 |
| 20260502223242 | 53 | 351 | 0.9 | 1.7 | 0.00 | 0.00 | 0.00 | 42 | 1019.4 |
| 20260502222739 | 53 | 32 | 2.6 | 2.6 | 0.00 | 0.00 | 0.00 | 42 | 1019.2 |
| 20260502222236 | 53 | 29 | 0.9 | 5.2 | 0.00 | 0.00 | 0.00 | 42 | 1019.5 |
| 20260502221731 | 52 | 1 | 0.0 | 2.6 | 0.00 | 0.00 | 0.00 | 42 | 1019.4 |
| 20260502221229 | 52 | 339 | 0.9 | 2.6 | 0.00 | 0.00 | 0.00 | 44 | 1019.3 |
| 20260502220725 | 52 | 2 | 0.9 | 1.7 | 0.00 | 0.00 | 0.00 | 43 | 1019.4 |
| 20260502220221 | 52 | 28 | 1.7 | 1.7 | 0.00 | 0.00 | 0.00 | 45 | 1019.3 |
| 20260502215718 | 53 | 32 | 0.9 | 1.7 | 0.00 | 0.00 | 0.00 | 43 | 1019.4 |
| 20260502215215 | 53 | 296 | 0.0 | 1.7 | 0.00 | 0.00 | 0.00 | 41 | 1019.2 |
| 20260502214712 | 53 | 296 | 1.7 | 2.6 | 0.00 | 0.00 | 0.00 | 41 | 1019.2 |
| 20260502214210 | 53 | 39 | 0.9 | 5.2 | 0.00 | 0.00 | 0.00 | 41 | 1019.1 |
| 20260502213707 | 52 | 327 | 0.0 | 2.6 | 0.00 | 0.00 | 0.00 | 41 | 1019.2 |
| 20260502213204 | 52 | 28 | 0.0 | 0.9 | 0.00 | 0.00 | 0.00 | 42 | 1019.2 |
| 20260502212702 | 53 | 327 | 0.9 | 1.7 | 0.00 | 0.00 | 0.00 | 41 | 1019.2 |
| 20260502212200 | 53 | 23 | 0.9 | 0.9 | 0.00 | 0.00 | 0.00 | 43 | 1019.3 |
| 20260502211656 | 52 | 268 | 2.6 | 2.6 | 0.00 | 0.00 | 0.00 | 41 | 1019.1 |
| 20260502211153 | 53 | 243 | 0.0 | 0.9 | 0.00 | 0.00 | 0.00 | 40 | 1019.1 |
| 20260502210650 | 53 | 354 | 0.0 | 2.6 | 0.00 | 0.00 | 0.00 | 42 | 1019.1 |
| 20260502210147 | 53 | 73 | 0.0 | 2.6 | 0.00 | 0.00 | 0.00 | 41 | 1018.9 |
| 20260502205644 | 52 | 22 | 0.9 | 1.7 | 0.00 | 0.00 | 0.00 | 41 | 1019.1 |
| 20260502205141 | 52 | 345 | 0.0 | 0.9 | 0.00 | 0.00 | 0.00 | 42 | 1019.1 |
| 20260502204638 | 52 | 316 | 0.9 | 2.6 | 0.00 | 0.00 | 0.00 | 40 | 1019.0 |
| 20260502204135 | 54 | 307 | 1.7 | 1.7 | 0.00 | 0.00 | 0.00 | 41 | 1019.2 |
| 20260502203632 | 54 | 25 | 1.7 | 2.6 | 0.00 | 0.00 | 0.00 | 41 | 1019.1 |
| 20260502203130 | 53 | 312 | 1.7 | 2.6 | 0.00 | 0.00 | 0.00 | 40 | 1019.2 |
| 20260502202625 | 53 | 33 | 0.0 | 1.7 | 0.00 | 0.00 | 0.00 | 41 | 1019.2 |
| 20260502202123 | 54 | 44 | 0.9 | 2.6 | 0.00 | 0.00 | 0.00 | 38 | 1019.3 |
| 20260502201620 | 52 | 273 | 1.7 | 1.7 | 0.00 | 0.00 | 0.00 | 41 | 1019.2 |
| 20260502201116 | 53 | 312 | 0.0 | 1.7 | 0.00 | 0.00 | 0.00 | 40 | 1019.3 |
| 20260502200612 | 53 | 25 | 1.7 | 2.6 | 0.00 | 0.00 | 0.00 | 40 | 1019.4 |
| 20260502200110 | 52 | 296 | 0.0 | 1.7 | 0.00 | 0.00 | 0.00 | 39 | 1019.4 |
| 20260502195608 | 53 | 292 | 2.6 | 2.6 | 0.00 | 0.00 | 0.00 | 40 | 1019.4 |
| 20260502195103 | 53 | 356 | 0.9 | 0.9 | 0.00 | 0.00 | 0.00 | 40 | 1019.5 |
| 20260502194600 | 53 | 37 | 0.9 | 2.6 | 0.00 | 0.00 | 0.00 | 39 | 1019.5 |
| 20260502194056 | 54 | 28 | 0.0 | 1.7 | 0.00 | 0.00 | 0.00 | 42 | 1019.5 |
| 20260502193554 | 53 | 82 | 0.0 | 2.6 | 0.00 | 0.00 | 0.00 | 43 | 1019.5 |
| 20260502193050 | 54 | 15 | 0.9 | 1.7 | 0.00 | 0.00 | 0.00 | 40 | 1019.4 |
| 20260502192546 | 55 | 335 | 0.9 | 1.7 | 0.00 | 0.00 | 0.00 | 41 | 1019.6 |
| 20260502192044 | 55 | 53 | 1.7 | 2.6 | 0.00 | 0.00 | 0.00 | 42 | 1019.6 |
| 20260502191540 | 53 | 195 | 0.9 | 1.7 | 0.00 | 0.00 | 0.00 | 39 | 1019.6 |
| 20260502191038 | 53 | 344 | 0.9 | 1.7 | 0.00 | 0.00 | 0.00 | 43 | 1019.6 |
| 20260502190536 | 53 | 19 | 2.6 | 4.3 | 0.00 | 0.00 | 0.00 | 40 | 1019.6 |
| 20260502190032 | 54 | 51 | 0.9 | 1.7 | 0.00 | 0.00 | 0.00 | 40 | 1019.8 |
| 20260502185527 | 53 | 140 | 2.6 | 4.3 | 0.00 | 0.00 | 0.00 | 40 | 1019.9 |
| 20260502185024 | 53 | 30 | 0.9 | 1.7 | 0.00 | 0.00 | 0.00 | 41 | 1019.9 |